Stations météo

réclame
Mon MeteoGroup
Manston, Grande-Bretagne (3797): Température de l'air & dewpoint: 10.07.2019 15:00:00 - 16.07.2019 15:00:00 (BST)Manston, Grande-Bretagne (3797): Température de l'air -20cm & Température de l'air -100cm: 10.07.2019 15:00:00 - 16.07.2019 15:00:00 (BST)Manston, Grande-Bretagne (3797): Vitesse du vent: 10.07.2019 15:00:00 - 16.07.2019 15:00:00 (BST)Manston, Grande-Bretagne (3797): Direction du vent: 10.07.2019 15:00:00 - 16.07.2019 15:00:00 (BST)Manston, Grande-Bretagne (3797): reduced air pressure: 10.07.2019 15:00:00 - 16.07.2019 15:00:00 (BST)Manston, Grande-Bretagne (3797): visibility: 10.07.2019 15:00:00 - 16.07.2019 15:00:00 (BST)Manston, Grande-Bretagne (3797): Ensoleillement: 10.07.2019 15:00:00 - 16.07.2019 15:00:00 (BST)Manston, Grande-Bretagne (3797): Quantités de précipitations: 10.07.2019 15:00:00 - 16.07.2019 15:00:00 (BST)
Date & Time tt [°C] td [°C] tt -20cm [°C] tt -100cm [°C] ff [km/h] ff [knt] dd ppp [hPa] vv [km] sd [min] rr [mm]
16.07.2019 15:00:00 22,5 12,6 - - 15 8 ESE 1019,0 21 60 -
16.07.2019 14:00:00 22,3 12,8 - - 11 6 ESE 1019,3 30 42 -
16.07.2019 13:00:00 20,4 11,3 - - 8 4 ENE 1019,6 30 36 -
16.07.2019 12:00:00 21,3 12,7 - - 11 6 ESE 1019,5 50 36 -
16.07.2019 11:00:00 19,3 11,6 - - 5 3 W 1019,9 30 48 -
16.07.2019 10:00:00 18,3 11,8 - - 8 4 W 1020,4 27 60 -
16.07.2019 09:00:00 16,3 11,4 - - 11 6 WSW 1020,8 30 60 0,0
16.07.2019 08:00:00 14,7 11,3 - - 11 6 WSW 1021,0 35 60 0,0
16.07.2019 07:00:00 13,0 11,2 - - 9 5 WSW 1020,7 24 48 0,0
16.07.2019 06:00:00 10,7 9,7 - - 8 4 W 1020,8 30 0 0,0
16.07.2019 05:00:00 10,3 9,4 - - 9 5 WSW 1020,7 29 0 0,0
16.07.2019 04:00:00 10,2 9,1 - - 11 6 WSW 1020,7 26 0 0,0
16.07.2019 03:00:00 11,3 9,8 - - 13 7 WSW 1021,0 40 0 0,0
16.07.2019 02:00:00 11,4 9,6 - - 11 6 WSW 1021,3 50 0 0,0
16.07.2019 01:00:00 11,8 9,5 - - 11 6 WSW 1021,6 40 - 0,0
16.07.2019 00:00:00 13,1 10,2 - - 5 3 SW 1021,7 40 0 0,0
15.07.2019 23:00:00 14,7 10,7 - - 4 2 S 1021,7 50 0 0,0
15.07.2019 22:00:00 13,7 9,9 - - 9 5 ESE 1021,8 50 0 0,0
15.07.2019 21:00:00 15,6 10,4 - - 4 2 E 1022,0 50 0 0,0
15.07.2019 20:00:00 15,9 10,6 - - 11 6 E 1021,8 50 0 0,0
15.07.2019 19:00:00 16,3 10,7 - - 11 6 ENE 1021,8 30 0 0,0
15.07.2019 18:00:00 16,6 10,5 - - 13 7 NE 1021,9 30 6 0,0
15.07.2019 17:00:00 17,2 10,1 - - 11 6 NNE 1022,2 45 0 0,0
15.07.2019 16:00:00 17,3 9,7 - - 13 7 NE 1022,6 30 0 0,0
15.07.2019 15:00:00 17,2 10,4 - - 15 8 N 1022,7 29 0 0,0
15.07.2019 14:00:00 17,1 10,4 - - 15 8 NNE 1022,7 40 0 0,0
15.07.2019 13:00:00 16,7 10,5 - - 16 9 N 1022,7 40 0 0,0
15.07.2019 12:00:00 15,7 10,3 - - 15 8 N 1022,8 30 0 0,0
15.07.2019 11:00:00 16,6 9,9 - - 16 9 N 1022,7 25 0 0,0
15.07.2019 10:00:00 15,4 10,4 17,7 15,7 13 7 N 1022,8 30 0 0,0
15.07.2019 09:00:00 15,5 9,5 - - 13 7 N 1022,7 40 0 0,0
15.07.2019 08:00:00 15,1 9,0 - - 9 5 NNE 1022,4 30 0 0,0
15.07.2019 07:00:00 14,8 9,5 - - 15 8 N 1022,0 35 0 0,0
15.07.2019 06:00:00 14,5 8,9 - - 11 6 NNE 1022,1 50 0 0,0
15.07.2019 05:00:00 14,3 9,3 - - 9 5 NNE 1022,3 45 0 0,0
15.07.2019 04:00:00 14,4 9,0 - - 11 6 NE 1022,1 50 0 0,0
15.07.2019 03:00:00 14,4 8,9 - - 15 8 NNE 1022,3 50 0 0,0
15.07.2019 02:00:00 14,6 8,9 - - 22 12 N 1022,6 40 0 0,0
15.07.2019 01:00:00 14,6 8,6 - - 18 10 N 1023,0 45 - 0,0
15.07.2019 00:00:00 15,0 9,3 - - 18 10 NNE 1023,2 45 0 0,0
14.07.2019 23:00:00 15,3 8,7 - - 21 11 NNE 1023,2 50 0 0,0
14.07.2019 22:00:00 14,5 9,3 - - 18 10 NNE 1023,2 40 0 0,0
14.07.2019 21:00:00 15,1 10,5 - - 21 11 NE 1023,1 28 0 0,0
14.07.2019 20:00:00 16,1 11,1 - - 21 11 NE 1022,8 30 18 0,0
14.07.2019 19:00:00 16,6 11,3 - - 21 11 NE 1023,0 40 42 0,0
14.07.2019 18:00:00 17,3 11,0 - - 22 12 NNE 1022,9 29 54 0,0
14.07.2019 17:00:00 18,0 12,2 - - 22 12 NE 1022,9 26 60 0,0
14.07.2019 16:00:00 19,2 11,6 - - 21 11 NNE 1023,1 35 54 0,0
14.07.2019 15:00:00 19,2 11,9 - - 18 10 NNE 1023,0 22 54 0,0
14.07.2019 14:00:00 18,1 11,1 - - 21 11 NNE 1023,2 35 30 0,0
14.07.2019 13:00:00 18,3 11,7 - - 13 7 NNE 1023,3 24 18 0,0
14.07.2019 12:00:00 17,9 10,0 - - 18 10 N 1023,3 30 60 0,0
14.07.2019 11:00:00 18,1 11,5 - - 18 10 N 1023,3 22 24 0,0
14.07.2019 10:00:00 16,7 12,2 17,7 15,7 16 9 NNE 1023,3 29 0 0,0
14.07.2019 09:00:00 16,1 12,6 - - 15 8 NNE 1023,2 35 0 0,0
14.07.2019 08:00:00 16,0 12,1 - - 21 11 N 1022,8 35 0 0,0
14.07.2019 07:00:00 15,5 12,1 - - 13 7 NNE 1022,6 40 0 0,0
14.07.2019 06:00:00 15,3 12,1 - - 13 7 NNE 1022,1 35 0 0,0
14.07.2019 05:00:00 15,1 11,6 - - 8 4 NE 1022,1 40 0 0,0
14.07.2019 04:00:00 15,1 11,6 - - 11 6 NNE 1022,4 40 0 0,0
14.07.2019 03:00:00 15,0 11,4 - - 16 9 NNE 1022,8 35 0 0,0
14.07.2019 02:00:00 15,3 12,4 - - 9 5 NE 1022,9 25 - 0,0
14.07.2019 01:00:00 15,4 12,7 - - 11 6 NE 1022,5 29 - 0,0
14.07.2019 00:00:00 14,9 12,8 - - 11 6 NE 1022,6 35 0 0,0
13.07.2019 23:00:00 13,0 11,8 - - 8 4 NE 1022,7 35 0 0,0
13.07.2019 22:00:00 13,2 11,3 - - 5 3 ENE 1022,9 40 0 0,0
13.07.2019 21:00:00 14,7 11,7 - - 5 3 ENE 1022,6 40 0 0,0
13.07.2019 20:00:00 15,9 12,2 - - 11 6 ENE 1022,4 45 0 0,0
13.07.2019 19:00:00 16,7 12,9 - - 15 8 ENE 1022,1 45 6 0,0
13.07.2019 18:00:00 19,7 14,0 - - 9 5 N 1021,9 24 42 0,0
13.07.2019 17:00:00 18,9 13,2 - - 8 4 NNW 1022,0 40 0 0,0
13.07.2019 16:00:00 18,8 13,2 - - 13 7 N 1022,1 45 0 0,0
13.07.2019 15:00:00 19,0 12,7 - - 15 8 NNW 1022,1 27 0 0,0
13.07.2019 14:00:00 18,8 13,7 - - 15 8 NNW 1022,2 27 0 0,0
13.07.2019 13:00:00 18,5 14,1 - - 13 7 NNW 1022,2 19 0 0,0
13.07.2019 12:00:00 17,9 13,8 - - 15 8 NW 1022,0 29 0 0,0
13.07.2019 11:00:00 17,5 14,1 - - 16 9 NNW 1021,6 14 0 0,0
13.07.2019 10:00:00 17,2 14,0 18,2 15,7 13 7 NNW 1021,3 15 0 0,0
13.07.2019 09:00:00 17,1 13,8 - - 15 8 N 1021,1 17 0 0,0
13.07.2019 08:00:00 17,1 14,1 - - 15 8 N 1020,7 27 0 0,0
13.07.2019 07:00:00 16,7 14,0 - - 15 8 N 1020,4 24 0 0,0
13.07.2019 06:00:00 16,2 14,3 - - 15 8 N 1019,8 25 0 0,0
13.07.2019 05:00:00 16,0 14,0 - - 18 10 N 1019,5 25 0 0,0
13.07.2019 04:00:00 16,3 13,9 - - 18 10 N 1019,3 35 0 0,0
13.07.2019 03:00:00 16,6 13,8 - - 21 11 NNW 1019,0 50 0 0,0
13.07.2019 02:00:00 16,9 14,3 - - 13 7 NNW 1018,7 50 0 0,0
13.07.2019 01:00:00 14,7 13,3 - - 8 4 NW 1018,6 13 - 0,0
13.07.2019 00:00:00 15,1 14,0 - - 8 4 W 1018,5 11 0 0,0
12.07.2019 23:00:00 15,4 14,1 - - 0 0 N 1018,2 16 0 0,0
12.07.2019 22:00:00 16,1 13,7 - - 8 4 ENE 1017,8 25 0 0,0
12.07.2019 21:00:00 17,9 13,1 - - 5 3 NE 1016,8 40 0 0,0
12.07.2019 20:00:00 19,6 13,6 - - 13 7 NNE 1016,1 45 0 0,0
12.07.2019 19:00:00 21,6 13,3 - - 13 7 N 1015,4 17 18 0,0
12.07.2019 18:00:00 22,8 13,0 - - 16 9 NNW 1014,8 21 54 0,0
12.07.2019 17:00:00 22,9 12,4 - - 15 8 NNW 1014,8 45 42 0,0
12.07.2019 16:00:00 22,5 12,0 - - 15 8 NNW 1014,7 35 42 0,0
12.07.2019 15:00:00 23,2 11,8 - - 15 8 NNW 1014,4 29 60 0,0
12.07.2019 14:00:00 21,4 12,5 - - 16 9 WNW 1014,3 35 30 0,0
12.07.2019 13:00:00 22,1 12,0 - - 22 12 WNW 1014,2 45 36 0,0
12.07.2019 12:00:00 21,4 12,0 - - 15 8 WNW 1014,0 40 60 0,0
12.07.2019 11:00:00 20,5 12,7 - - 15 8 NW 1013,9 40 60 0,0
12.07.2019 10:00:00 18,7 14,5 18,2 15,5 18 10 NW 1013,5 40 0 0,0
12.07.2019 09:00:00 18,7 14,5 - - 15 8 WNW 1013,3 40 12 0,0
12.07.2019 08:00:00 18,6 14,4 - - 16 9 WNW 1013,0 45 0 0,0
12.07.2019 07:00:00 18,1 14,3 - - 11 6 W 1012,6 45 0 0,0
12.07.2019 06:00:00 16,1 13,4 - - 13 7 W 1012,3 50 0 0,0
12.07.2019 05:00:00 16,7 13,3 - - 9 5 W 1012,0 50 0 0,0
12.07.2019 04:00:00 16,6 13,5 - - 11 6 W 1012,0 45 0 0,0
12.07.2019 03:00:00 16,3 14,2 - - 11 6 W 1011,9 30 0 0,0
12.07.2019 02:00:00 18,3 15,0 - - 8 4 WNW 1012,0 40 0 0,0
12.07.2019 01:00:00 19,8 15,0 - - 13 7 NW 1012,3 50 - 0,0
12.07.2019 00:00:00 18,8 14,4 - - 13 7 W 1012,2 45 0 0,0
11.07.2019 23:00:00 18,9 13,8 - - 15 8 WSW 1012,3 35 0 0,0
11.07.2019 22:00:00 18,9 14,5 - - 13 7 SSW 1011,8 35 0 0,0
11.07.2019 21:00:00 19,8 14,5 - - 13 7 SSW 1011,6 35 0 0,0
11.07.2019 20:00:00 21,1 13,8 - - 16 9 SSW 1011,8 40 0 0,0
11.07.2019 19:00:00 22,6 13,4 - - 21 11 SW 1011,7 35 48 0,0
11.07.2019 18:00:00 23,5 13,6 - - 21 11 SSW 1011,7 35 30 0,0
11.07.2019 17:00:00 24,5 14,1 - - 9 5 SSW 1011,9 23 54 0,0
11.07.2019 16:00:00 24,9 11,0 - - 15 8 WNW 1012,2 28 60 0,0
11.07.2019 15:00:00 23,6 11,4 - - 16 9 NNW 1012,4 35 54 0,0
11.07.2019 14:00:00 24,7 11,3 - - 18 10 WSW 1012,4 35 60 0,0
11.07.2019 13:00:00 23,5 11,4 - - 16 9 WSW 1012,7 40 30 0,0
11.07.2019 12:00:00 22,0 11,7 - - 15 8 WSW 1012,9 22 24 0,0
11.07.2019 11:00:00 21,2 12,8 - - 9 5 W 1013,0 27 12 0,0
11.07.2019 10:00:00 19,6 11,8 17,5 15,5 13 7 WNW 1013,2 30 6 0,0
11.07.2019 09:00:00 18,3 12,6 - - 16 9 WNW 1013,2 35 0 0,0
11.07.2019 08:00:00 17,0 11,6 - - 15 8 W 1013,0 29 0 0,0
11.07.2019 07:00:00 15,8 10,8 - - 11 6 SW 1012,9 40 0 0,0
11.07.2019 06:00:00 15,4 10,4 - - 13 7 WSW 1013,0 50 0 0,0
11.07.2019 05:00:00 15,1 9,8 - - 13 7 SW 1013,1 40 0 0,0
11.07.2019 04:00:00 15,2 9,6 - - 15 8 SW 1013,5 45 0 0,0
11.07.2019 03:00:00 15,2 9,7 - - 13 7 SSW 1014,1 50 0 0,0
11.07.2019 02:00:00 15,7 9,9 - - 13 7 SW 1014,7 50 0 0,0
11.07.2019 01:00:00 16,3 10,7 - - 13 7 SSW 1014,9 50 - 0,0
11.07.2019 00:00:00 16,1 11,7 - - 13 7 S 1015,1 45 0 0,0
10.07.2019 23:00:00 16,9 11,9 - - 11 6 SSW 1015,7 50 0 0,0
10.07.2019 22:00:00 17,8 12,3 - - 11 6 SSW 1015,8 50 0 0,0
10.07.2019 21:00:00 19,5 13,3 - - 11 6 SSW 1016,0 50 0 0,0
10.07.2019 20:00:00 21,2 13,4 - - 13 7 SW 1016,4 45 30 0,0
10.07.2019 19:00:00 23,0 13,8 - - 18 10 SW 1016,6 35 54 0,0
10.07.2019 18:00:00 22,7 14,5 - - 18 10 S 1016,9 27 6 0,0
10.07.2019 17:00:00 23,0 15,0 - - 18 10 SSW 1017,3 45 6 0,0
10.07.2019 16:00:00 22,3 15,4 - - 16 9 SSW 1017,8 35 0 0,0
10.07.2019 15:00:00 22,6 15,3 - - 21 11 SSW 1018,2 18 0 0,0

tt = Température de l'air
td = dewpoint
tt -20cm = Température de l'air -20cm
tt -100cm = Température de l'air -100cm
ff = Vitesse du vent
dd = Direction du vent
ppp = reduced air pressure
vv = visibility
sd = Ensoleillement
rr = Quantités de précipitations

stations d'obs. à proximité